Eurocargo Venezia — IBKS — position and weather

sailwx.info

Track history (hours):
 
Tides and Currents Weather Stations Pressure Air Temp Water Temp Dewpoint Dewpoint Depression Visibility Wind Speed Wind Dir Waves Ship Positions

Eurocargo Venezia

Last reported at 2014-Oct-20 10:32 UTC. Time now 2014-Oct-20 11:21 UTC.
Position N 44°24' E 008°53'.

Length 200 m; draft 7.3 m.

Type: Ship (hazmat cat A). MMSI: 247297200.

Date/timePositionNaut miles runAvg speedWind from/ knotsBaromVisibWave heightAir tempDewpointWater temp
2014-Oct-20 10:32N 44°24' E 008°53'0 0.0
2014-Oct-20 09:32N 44°24' E 008°53'5 4.7
2014-Oct-20 08:33N 44°21' E 008°58'1717.1
2014-Oct-20 07:34N 44°08' E 009°13'1817.7
2014-Oct-20 06:33N 43°54' E 009°29'1817.9
2014-Oct-20 05:33N 43°41' E 009°46'1817.8
2014-Oct-20 04:34N 43°28' E 010°02'1817.8
2014-Oct-20 03:33N 43°13' E 010°14'3517.6
2014-Oct-20 01:33N 42°43' E 010°39'1817.7
2014-Oct-20 00:33N 42°28' E 010°53'2417.6
2014-Oct-19 23:12N 42°15' E 011°20'29917.8
2014-Oct-19 06:25N 38°26' E 015°33'119 7.1
2014-Oct-18 13:33N 36°29' E 015°05'1919.4
2014-Oct-18 12:33N 36°13' E 014°52'1918.8
2014-Oct-18 11:33N 35°59' E 014°38'8 7.5
2014-Oct-18 10:30N 35°53' E 014°31'0 0.0
2014-Oct-18 09:33N 35°53' E 014°31'0 0.0
2014-Oct-18 06:15N 35°53' E 014°31'0 0.0
2014-Oct-18 05:24N 35°53' E 014°31'0 0.0
2014-Oct-18 03:30N 35°53' E 014°31'2 2.0
2014-Oct-18 02:34N 35°55' E 014°32'1716.8
2014-Oct-18 01:33N 36°08' E 014°44'1717.3
2014-Oct-18 00:33N 36°22' E 014°56'121 8.0
2014-Oct-17 09:23N 38°19' E 015°39'35418.7
2014-Oct-16 14:28N 42°47' E 010°35'1718.4
2014-Oct-16 13:33N 43°02' E 010°25'1918.5
2014-Oct-16 12:33N 43°19' E 010°16'1313.4
2014-Oct-16 11:33N 43°32' E 010°17'2 2.3
2014-Oct-16 10:31N 43°35' E 010°18'0 0.0
2014-Oct-16 09:25N 43°35' E 010°18'0 0.0
2014-Oct-16 08:31N 43°35' E 010°18'0 0.0
2014-Oct-16 07:31N 43°35' E 010°18'0 0.0
2014-Oct-16 06:31N 43°35' E 010°18'0 0.0
2014-Oct-16 05:31N 43°35' E 010°18'0 0.0
2014-Oct-16 04:28N 43°35' E 010°18'1 0.7
2014-Oct-16 03:34N 43°34' E 010°18'3 3.5
2014-Oct-16 02:34N 43°31' E 010°15'10 9.7
2014-Oct-16 01:33N 43°31' E 010°02'1919.0
2014-Oct-16 00:33N 43°42' E 009°41'1818.3
2014-Oct-15 23:33N 43°57' E 009°26'1918.7
2014-Oct-15 22:33N 44°11' E 009°09'1616.0
2014-Oct-15 21:33N 44°24' E 008°55'1 1.3
2014-Oct-15 20:33N 44°24' E 008°53'0 0.0
2014-Oct-15 19:30N 44°24' E 008°53'0 0.0
2014-Oct-15 18:33N 44°24' E 008°53'0 0.0
2014-Oct-15 17:33N 44°24' E 008°53'0 0.0
2014-Oct-15 16:30N 44°24' E 008°53'0 0.0
2014-Oct-15 15:24N 44°24' E 008°53'0 0.0
2014-Oct-15 14:30N 44°24' E 008°53'0 0.0
2014-Oct-15 13:30N 44°24' E 008°53'0 0.2
2014-Oct-15 12:33N 44°24' E 008°53'9 8.9
2014-Oct-15 11:34N 44°18' E 009°02'1919.0
2014-Oct-15 10:33N 44°03' E 009°19'1919.1
2014-Oct-15 09:33N 43°49' E 009°36'1919.2
2014-Oct-15 08:34N 43°34' E 009°54'1818.4
2014-Oct-15 07:33N 43°20' E 010°09'1918.8
2014-Oct-15 06:32N 43°03' E 010°22'20918.6
2014-Oct-14 19:20N 40°23' E 013°22'1418.7
2014-Oct-14 18:34N 40°12' E 013°34'1818.4
2014-Oct-14 17:34N 39°58' E 013°50'1818.2
2014-Oct-14 16:33N 39°44' E 014°05'9919.5
2014-Oct-14 11:27N 38°30' E 015°30'1714.8
2014-Oct-14 10:19N 38°14' E 015°37'150 5.3
2014-Oct-13 06:05N 35°53' E 014°31'2 4.4
2014-Oct-13 05:33N 35°55' E 014°33'1717.4
2014-Oct-13 04:34N 36°09' E 014°45'1919.4
2014-Oct-13 03:33N 36°25' E 014°60'12812.6
2014-Oct-12 17:26N 38°30' E 015°26'13318.4
2014-Oct-12 10:12N 40°12' E 013°34'27518.7
2014-Oct-11 19:28N 43°45' E 009°40'2018.7
2014-Oct-11 18:25N 43°60' E 009°22'1618.4
2014-Oct-11 17:34N 44°12' E 009°08'1615.5
2014-Oct-11 16:33N 44°24' E 008°55'1 1.1
2014-Oct-11 15:32N 44°24' E 008°53'0 0.0
2014-Oct-11 14:32N 44°24' E 008°53'0 0.0
2014-Oct-11 13:32N 44°24' E 008°53'0 0.0
2014-Oct-11 12:32N 44°24' E 008°53'0 0.0
2014-Oct-11 11:32N 44°24' E 008°53'0 0.0
2014-Oct-11 10:32N 44°24' E 008°53'0 0.0
2014-Oct-11 09:32N 44°24' E 008°53'0 0.0
2014-Oct-11 08:32N 44°24' E 008°53'0 0.0
2014-Oct-11 07:32N 44°24' E 008°53'0 0.0
2014-Oct-11 06:32N 44°24' E 008°53'0 0.3
2014-Oct-11 05:33N 44°24' E 008°54'7 7.0
2014-Oct-11 04:34N 44°19' E 009°00'9 9.1
2014-Oct-11 03:34N 44°12' E 009°09'1817.5
2014-Oct-11 02:33N 43°59' E 009°24'1918.8
2014-Oct-11 01:33N 43°44' E 009°41'1918.8
2014-Oct-11 00:33N 43°31' E 009°59'1918.6
2014-Oct-10 23:33N 43°15' E 010°13'22218.5
2014-Oct-10 11:33N 40°23' E 013°21'1818.5
2014-Oct-10 10:33N 40°09' E 013°37'  
Track history (hours):
 
Tides and Currents Weather Stations Pressure Air Temp Water Temp Dewpoint Dewpoint Depression Visibility Wind Speed Wind Dir Waves Ship Positions

Eurocargo Venezia

Last reported at 2014-Oct-20 10:32 UTC. Time now 2014-Oct-20 11:21 UTC.
Position N 44°24' E 008°53'.

Length 200 m; draft 7.3 m.

Type: Ship (hazmat cat A). MMSI: 247297200.

Date/timePositionNaut miles runAvg speedWind from/ knotsBaromVisibWave heightAir tempDewpointWater temp
2014-Oct-20 10:32N 44°24' E 008°53'0 0.0
2014-Oct-20 09:32N 44°24' E 008°53'5 4.7
2014-Oct-20 08:33N 44°21' E 008°58'1717.1
2014-Oct-20 07:34N 44°08' E 009°13'1817.7
2014-Oct-20 06:33N 43°54' E 009°29'1817.9
2014-Oct-20 05:33N 43°41' E 009°46'1817.8
2014-Oct-20 04:34N 43°28' E 010°02'1817.8
2014-Oct-20 03:33N 43°13' E 010°14'3517.6
2014-Oct-20 01:33N 42°43' E 010°39'1817.7
2014-Oct-20 00:33N 42°28' E 010°53'2417.6
2014-Oct-19 23:12N 42°15' E 011°20'29917.8
2014-Oct-19 06:25N 38°26' E 015°33'119 7.1
2014-Oct-18 13:33N 36°29' E 015°05'1919.4
2014-Oct-18 12:33N 36°13' E 014°52'1918.8
2014-Oct-18 11:33N 35°59' E 014°38'8 7.5
2014-Oct-18 10:30N 35°53' E 014°31'0 0.0
2014-Oct-18 09:33N 35°53' E 014°31'0 0.0
2014-Oct-18 06:15N 35°53' E 014°31'0 0.0
2014-Oct-18 05:24N 35°53' E 014°31'0 0.0
2014-Oct-18 03:30N 35°53' E 014°31'2 2.0
2014-Oct-18 02:34N 35°55' E 014°32'1716.8
2014-Oct-18 01:33N 36°08' E 014°44'1717.3
2014-Oct-18 00:33N 36°22' E 014°56'121 8.0
2014-Oct-17 09:23N 38°19' E 015°39'35418.7
2014-Oct-16 14:28N 42°47' E 010°35'1718.4
2014-Oct-16 13:33N 43°02' E 010°25'1918.5
2014-Oct-16 12:33N 43°19' E 010°16'1313.4
2014-Oct-16 11:33N 43°32' E 010°17'2 2.3
2014-Oct-16 10:31N 43°35' E 010°18'0 0.0
2014-Oct-16 09:25N 43°35' E 010°18'0 0.0
2014-Oct-16 08:31N 43°35' E 010°18'0 0.0
2014-Oct-16 07:31N 43°35' E 010°18'0 0.0
2014-Oct-16 06:31N 43°35' E 010°18'0 0.0
2014-Oct-16 05:31N 43°35' E 010°18'0 0.0
2014-Oct-16 04:28N 43°35' E 010°18'1 0.7
2014-Oct-16 03:34N 43°34' E 010°18'3 3.5
2014-Oct-16 02:34N 43°31' E 010°15'10 9.7
2014-Oct-16 01:33N 43°31' E 010°02'1919.0
2014-Oct-16 00:33N 43°42' E 009°41'1818.3
2014-Oct-15 23:33N 43°57' E 009°26'1918.7
2014-Oct-15 22:33N 44°11' E 009°09'1616.0
2014-Oct-15 21:33N 44°24' E 008°55'1 1.3
2014-Oct-15 20:33N 44°24' E 008°53'0 0.0
2014-Oct-15 19:30N 44°24' E 008°53'0 0.0
2014-Oct-15 18:33N 44°24' E 008°53'0 0.0
2014-Oct-15 17:33N 44°24' E 008°53'0 0.0
2014-Oct-15 16:30N 44°24' E 008°53'0 0.0
2014-Oct-15 15:24N 44°24' E 008°53'0 0.0
2014-Oct-15 14:30N 44°24' E 008°53'0 0.0
2014-Oct-15 13:30N 44°24' E 008°53'0 0.2
2014-Oct-15 12:33N 44°24' E 008°53'9 8.9
2014-Oct-15 11:34N 44°18' E 009°02'1919.0
2014-Oct-15 10:33N 44°03' E 009°19'1919.1
2014-Oct-15 09:33N 43°49' E 009°36'1919.2
2014-Oct-15 08:34N 43°34' E 009°54'1818.4
2014-Oct-15 07:33N 43°20' E 010°09'1918.8
2014-Oct-15 06:32N 43°03' E 010°22'20918.6
2014-Oct-14 19:20N 40°23' E 013°22'1418.7
2014-Oct-14 18:34N 40°12' E 013°34'1818.4
2014-Oct-14 17:34N 39°58' E 013°50'1818.2
2014-Oct-14 16:33N 39°44' E 014°05'9919.5
2014-Oct-14 11:27N 38°30' E 015°30'1714.8
2014-Oct-14 10:19N 38°14' E 015°37'150 5.3
2014-Oct-13 06:05N 35°53' E 014°31'2 4.4
2014-Oct-13 05:33N 35°55' E 014°33'1717.4
2014-Oct-13 04:34N 36°09' E 014°45'1919.4
2014-Oct-13 03:33N 36°25' E 014°60'12812.6
2014-Oct-12 17:26N 38°30' E 015°26'13318.4
2014-Oct-12 10:12N 40°12' E 013°34'27518.7
2014-Oct-11 19:28N 43°45' E 009°40'2018.7
2014-Oct-11 18:25N 43°60' E 009°22'1618.4
2014-Oct-11 17:34N 44°12' E 009°08'1615.5
2014-Oct-11 16:33N 44°24' E 008°55'1 1.1
2014-Oct-11 15:32N 44°24' E 008°53'0 0.0
2014-Oct-11 14:32N 44°24' E 008°53'0 0.0
2014-Oct-11 13:32N 44°24' E 008°53'0 0.0
2014-Oct-11 12:32N 44°24' E 008°53'0 0.0
2014-Oct-11 11:32N 44°24' E 008°53'0 0.0
2014-Oct-11 10:32N 44°24' E 008°53'0 0.0
2014-Oct-11 09:32N 44°24' E 008°53'0 0.0
2014-Oct-11 08:32N 44°24' E 008°53'0 0.0
2014-Oct-11 07:32N 44°24' E 008°53'0 0.0
2014-Oct-11 06:32N 44°24' E 008°53'0 0.3
2014-Oct-11 05:33N 44°24' E 008°54'7 7.0
2014-Oct-11 04:34N 44°19' E 009°00'9 9.1
2014-Oct-11 03:34N 44°12' E 009°09'1817.5
2014-Oct-11 02:33N 43°59' E 009°24'1918.8
2014-Oct-11 01:33N 43°44' E 009°41'1918.8
2014-Oct-11 00:33N 43°31' E 009°59'1918.6
2014-Oct-10 23:33N 43°15' E 010°13'22218.5
2014-Oct-10 11:33N 40°23' E 013°21'1818.5
2014-Oct-10 10:33N 40°09' E 013°37'  

Dump ship's entire track history